星链-1573 (STARLINK-1573 )

导读

STARLINK-1573是美国SpaceX公司星链互联网星座中的一颗低轨通信卫星,于2020年8月7日发射升空,属于星链项目早期部署批次。作为SpaceX打造全球卫星互联网的组成部分,它运行在近地轨道,依托星链星座组网,为偏远地区提供高速低延迟宽带服务。卫星配备霍尔推进器,具备自主避撞能力,寿命末期会主动离轨再入大气层烧毁,减少太空垃圾影响。

Basic Information
目录编号:
46061
目录名称:
STARLINK-1573
国际标识:
2020-055AL
轨道中心:
EARTH
卫星名称:
星链-1573
卫星全名:
星链-1573 (STARLINK-1573 )
卫星状态:
在轨 (已飞行2227 天)
发射日期:
2020-08-07 UTC
国别 :
美国 (US)
星等 :
--
This satellite is enrolled in the Space Conjunction Data Service (SCDS) and the current flight risk assessment level is: No High Risk
Orbit Information
数据来源 国际轨道数据 AOE轨道数据
星历时间 2026-09-12T11:38:04+0800
13小时前
查看轨道信息
2026-09-06T07:00:00+0800
6天前
查看轨道信息
半长轴 6848.874km 6848.875km
偏心率 0.0001212 0.0001104
轨道倾角 53.160° 53.161°
近地点辐角 86.057° 82.492°
升交点赤经 326.147° 354.980°
平近点角 274.057° 309.002°
近地点 469.906km 469.981km
远地点 471.568km 471.495km
周期 94.013分钟 94.013分钟
每日圈数 15.317011 15.317007
Detailed Information
固有亮度:
5
最大亮度:
2.5
卫星平台:
Starlink V1.0
覆盖范围:
全球
运营商:
太空探索技术公司
运营商所在国:
美国
制造商(研发单位):
太空探索技术公司
制造商所在国:
美国
使用方式:
暂无
Satellite Introduction
星链(Starlink)计划是由太空探索技术公司(SpaceX)提出的一个巨型低轨卫星互联网星座项目,计划在2019年至2024年间在太空搭建由约1.2万颗卫星组成的“星链”网络,其中1584颗将部署在地球上空550千米处的近地轨道,并从2020年开始工作。该卫星仍在工作。
2D Orbit Map
3D Orbit Map
Orbit Altitude Analysis Chart
Orbit Inclination Analysis Chart
Orbit Comprehensive Analysis Chart
View Comprehensive Chart
Conjunction Data List
Event ID Objects TCA Miss Dist (km) Collision Risk Probability Collision Risk Index (CRI) Action
CDM_260914-193304-606104-847921
2026-09-14T
19:33:36+0000
0.828 km
远距离
3.221597E-5 中风险 0.65
CDM_260914-175904-606104-847921
2026-09-14T
17:59:39+0000
1.750 km
极远距离
2.692938E-6 低风险 0.44
CDM_260915-002004-606106-544221
2026-09-15T
00:20:50+0000
2.706 km
极远距离
1.517861E-6 低风险 0.39
CDM_260912-155104-606106-975021
2026-09-12T
15:51:43+0000
2.712 km
极远距离
1.461874E-6 低风险 0.38
CDM_260912-192204-606106-238323
2026-09-12T
19:22:43+0000
2.534 km
极远距离
1.454695E-6 低风险 0.38
CDM_260914-215104-606105-307821
2026-09-14T
21:51:04+0000
2.696 km
极远距离
1.440157E-6 低风险 0.38
CDM_260913-200404-606106-861421
2026-09-13T
20:04:17+0000
2.830 km
极远距离
1.389352E-6 低风险 0.38
Miss Distance Evolution Trend with All Objects
Collision Probability Evolution Trend with All Objects